This is the latest recevied weather packets stored in our database for station/object DJ5NF-10. If no packets are shown the sender has not sent any weather packets the latest 1 day(s).
| Time | Temp. | Humidity | Pressure | Rain* | Wind** | Luminosity | Snow |
|---|---|---|---|---|---|---|---|
| 1777757189 | 25.56° C | 30% | 1009.8 hPa | - | - | - | - |
| 1777754488 | 25.56° C | 30% | 1010.2 hPa | - | - | - | - |
| 1777751788 | 26.11° C | 30% | 1010.9 hPa | - | - | - | - |
| 1777749088 | 26.11° C | 29% | 1011.9 hPa | - | - | - | - |
| 1777746388 | 26.67° C | 29% | 1009.6 hPa | - | - | - | - |
| 1777743688 | 26.67° C | 29% | 1009.7 hPa | - | - | - | - |
| 1777740988 | 26.67° C | 29% | 1009.9 hPa | - | - | - | - |
| 1777738288 | 26.11° C | 29% | 1010.6 hPa | - | - | - | - |
| 1777735588 | 26.11° C | 29% | 1011.4 hPa | - | - | - | - |
| 1777732888 | 26.11° C | 28% | 1012.1 hPa | - | - | - | - |
| 1777730188 | 26.67° C | 28% | 1012.5 hPa | - | - | - | - |
| 1777727488 | 26.11° C | 28% | 1012.5 hPa | - | - | - | - |
| 1777724788 | 26.11° C | 27% | 1013 hPa | - | - | - | - |
| 1777722088 | 25.56° C | 27% | 1013.5 hPa | - | - | - | - |
| 1777719387 | 25° C | 27% | 1013.9 hPa | - | - | - | - |
| 1777716686 | 24.44° C | 27% | 1014.4 hPa | - | - | - | - |
| 1777713991 | 23.89° C | 27% | 1014.8 hPa | - | - | - | - |
| 1777711290 | 23.33° C | 27% | 1015 hPa | - | - | - | - |
| 1777708590 | 23.33° C | 27% | 1014.9 hPa | - | - | - | - |
| 1777705890 | 22.78° C | 27% | 1015 hPa | - | - | - | - |
| 1777703190 | 22.78° C | 27% | 1014.8 hPa | - | - | - | - |
| 1777700489 | 22.22° C | 27% | 1015.1 hPa | - | - | - | - |
| 1777697789 | 22.22° C | 27% | 1014.9 hPa | - | - | - | - |
| 1777695089 | 22.78° C | 27% | 1015 hPa | - | - | - | - |
| 1777689689 | 23.33° C | 27% | 1015.6 hPa | - | - | - | - |
* Rain since midnight (hover to see other rain measurements)
** Current wind speed in m/s (hover to see current wind gust speed)